Hourly Data Report for September 02, 2017

All times are specified in Local Standard Time (LST). Add 1 hour to adjust for Daylight Saving Time where and when it is observed.

RESOLUTE BAY A
NUNAVUT

74°43'01.000" N
94°58'10.000" W
67.70 m
2403498
71924
YRB

Download Data

Hourly Data (September 2017)
Hourly Data Report for September 2, 2017
Temp Definition
°C
Dew Point Temp Definition
°C
Rel Hum Definition
%
Wind Dir Definition
10's deg

Wind Spd Definition
km/h
Visibility Definition
km
Stn Press Definition
kPa
Hmdx Definition


Wind Chill Definition


Weather Definition


TIME
00:00 Legend Double Dagger -1.0 -2.0 93 32 19 24.1 100.42   -6 Cloudy
01:00 Legend Double Dagger -0.9 -1.5 96 32 21 1.6 100.44   -7 Fog
02:00 Legend Double Dagger -0.8 -1.3 97 32 19 6.4 100.49   -6 Fog
03:00 Legend Double Dagger -0.8 -1.4 96 32 14 9.7 100.52   -5 Fog
04:00 Legend Double Dagger -0.8 -1.6 94 33 17 24.1 100.52   -6 LegendNANA
05:00 Legend Double Dagger -0.8 -1.8 93 34 13 19.3 100.55   -5 LegendNANA
06:00 Legend Double Dagger -0.8 -1.7 93 31 14 24.1 100.56   -5 Cloudy
07:00 Legend Double Dagger -1.2 -2.1 93 34 20 24.1 100.55   -7 LegendNANA
08:00 Legend Double Dagger -0.6 -1.8 92 33 21 24.1 100.55   -6 Snow Showers
09:00 Legend Double Dagger -0.4 -1.8 91 32 16 24.1 100.56   -5 Snow Showers
10:00 Legend Double Dagger -0.3 -1.9 89 33 21 24.1 100.56   -6 Snow Showers
11:00 Legend Double Dagger -0.3 -1.6 91 31 18 24.1 100.56   -5 Snow Showers
12:00 Legend Double Dagger -0.3 -1.3 93 32 17 24.1 100.56   -5 Snow Showers
13:00 Legend Double Dagger -0.2 -2.1 87 33 15 24.1 100.60   -5 Snow Showers
14:00 Legend Double Dagger -0.1 -2.1 86 30 11 24.1 100.56   -4 Snow Showers
15:00 Legend Double Dagger -0.4 -1.7 91 28 11 24.1 100.61   -4 Cloudy
16:00 Legend Double Dagger -0.4 -1.4 93 28 18 24.1 100.61   -5 LegendNANA
17:00 Legend Double Dagger -0.3 -1.6 91 31 16 24.1 100.59   -5 LegendNANA
18:00 Legend Double Dagger -0.5 -1.5 93 29 11 24.1 100.56   -4 Snow Showers
19:00 Legend Double Dagger -0.8 -1.6 94 28 14 24.1 100.55   -5 Snow Showers
20:00 Legend Double Dagger -0.8 -1.5 95 31 11 24.1 100.54   -5 Snow Showers
21:00 Legend Double Dagger -0.8 -1.4 96 28 12 12.9 100.53   -5 Snow Showers
22:00 Legend Double Dagger -1.0 -1.4 97 28 12 3.2 100.52   -5 Fog
23:00 Legend Double Dagger -0.9 -1.3 97 30 11 2.8 100.49   -5 Fog

Notes on Data Quality.

Legend

  • E = Estimated
  • M = Missing
  • NA = Not Available
  • ‡ = Partner data that is not subject to review by the National Climate Archives
Date modified: